STARLINK-31511, 59462

Orbit data source: Space-Track

STARLINK-31511, 59462 is a payload satellite owned by SpaceX/Seattle (US) in LEO that was launched on Wed, 10 Apr 2024 UTC via an FALCON 9 launch vehicle from the Air Force Eastern Test Range (AFETR). Payload-class satellites include a variety of spacecraft equipped with specific instruments for various scientific and technological missions. These include communications satellites like Starlink; space stations such as the ISS; scientific satellites like the Hubble; Earth observation satellites from companies like Planet Labs, Umbra, and HawkEye 360; GPS; miniature CubeSats for education and research; and military/defense satellites.

Loading next visibility...
Identifier
59462, 2024-068H
Orbit
LEO
Country
Flag of USUS
Related business
Manufacturer
SpaceX/Seattle
Mission
Operational Commercial Communications
Bus & Motor
STARLINK V2M, Unknown motor
Mass
730 kg wet, ~700 kg dry
Launch date (UTC)
2024-04-10 (2 years ago)
Launch vehicle
FALCON 9
Launch site
Air Force Eastern Test Range (AFETR)
Object type
Payload
Rocket body
Debris
Shape & HBR
Box + 2 Pan, 17.7 m
Radar Cross Section
33.884 m², Large (>1 m²)

Expand to show TLE details & history
Last TLE update: 2 days ago

TLE from 2 days ago
0 STARLINK-31511
1 59462U 24068H   26171.03771017  .00000667  00000-0  33751-4 0  9991
2 59462  43.0008 176.6727 0001236 274.7259  85.3452 15.27577854124170
Epoch: 2026-06-20T00:54Z
TLE epoch observation values (Epoch: 2026-06-20T00:54:18.158Z)
Latitude
0.00001°
Longitude
-105.16103°
Altitude
482.762 km
Speed
7.626 km/s
True Right ascension
11h 46m 41s
True Declination
0° 00' 00"
Sunlit
Object was in daylight at epoch
Visualization orbit readout
Latitude
Unknown
Longitude
Unknown
Altitude
Unknown
Speed
Unknown
Apparent Right ascension
Unknown
Apparent Declination
Unknown
Sunlit
N/A
Visualization observer readout
Local Sidereal Time
21:28:53
Azimuth
Unknown
Elevation
Unknown
Doppler factor
Unknown
Orbital elements
Apogee altitude
485.849 km
Perigee altitude
484.152 km
Semi-major axis
6,863.138 km
Eccentricity
0.00012
Inclination
43.0008°
RAAN
176.6727°
Arg. of periapsis
274.7259°
True anomaly
85.35932°
Mean anomaly
85.3452°
Eccentric anomaly
85.35226°
Mean motion
3.81732 °/min
Orbital period
94.31 mins
BSTAR
0.000033751
Loading maneuver chart data...
Computing Atmospheric mass density...
Loading historical data...
Loading historical data...
Loading historical data...
Loading historical data...
Loading historical data...
Loading historical data...
Loading historical data...

Documentation

Showing up to 5 results
|